CZ-6A DEB

Satellite information

Favourite Embed

Satellite Type and Status

DEBRISIN ORBIT

Key statistics

Satellite CZ-6A DEB at a glance.

Uptime

1128

Days in orbit

Revolutions

≈ 14.2

Per day

Orbit

SSO

Sun Synchronous Orbit

Inclination

98.8

Latest

Satellite identification and parameters

Extended collection of information and parameters for CZ-6A DEB.

Object identification

Identified? True

Debris? True

Object name: CZ-6A DEB

International designator: 2022-151ACU

Object number (NORAD): 56276

Object ID (CCSDS): 56276

Country: PEOPLES REPUBLIC OF CHINA (PRC)

Current information (Y/N): Y

RCS size: SMALL

Orbital parameters

Period: 101.373 minutes

Inclination: 98.7857 deg

SMA: 7201.826 km

Apoapsis: 830.756 km

Periapsis: 816.625 km

RAAN: 358.412 deg

Eccentricy: 0.0009811

Argument of periapsis: 127.5 deg

Mean anomaly: 232.707 deg

Mean motion: 14.2049219 rev/day

Mean motion (dot): 0.00001422 rev/day2

B* drag term: 0.00068279533 1/REarth

Two-line elements (TLE)

Creation date: Dec. 12, 2025, 10:14 a.m.

Reference frame: TEME

Reference center: EARTH

Epoch: Dec. 12, 2025, 6:57 a.m. UTC

TLE line 0: 0 CZ-6A DEB

TLE line 1: 1 56276U 22151ACU 25346.29007564 .00001422 00000-0 68280-3 0 9996

TLE line 2: 2 56276 98.7857 358.4120 0009811 127.5000 232.7070 14.20492190141682

Live tracking on map

Real-time ground track for satellite CZ-6A DEB.

In-orbit conjunctions

A list of the most updated potential collisions computed for object CZ-6A DEB.

Target Orbit TCA Probability of collision Miss distance Type
COSMOS 1275 DEB LEO 2025-10-20 15:10:08 0.0001662751 148.0 (m) DEBRIS
METEOR 1-17 DEB LEO 2025-05-16 13:51:04 0.0001028767 196.0 (m) DEBRIS
FENGYUN 1C DEB SSO 2025-05-03 00:18:19 0.0001794491 50.0 (m) DEBRIS
SL-16 DEB * LEO 2025-02-11 17:50:38 0.000102565 125.0 (m) DEBRIS
FENGYUN 1C DEB SSO 2024-11-09 23:10:40 0.002612993 137.0 (m) DEBRIS

Associated space launch

Chinese satellite reported for atmospheric/ocean/environmental/spatial parameter research purposes, details TBD.

CZ-6A DEB was lifted into orbit during the mission ‘Long March 6A | Yunhai 3’, on board a Long March 6A space rocket.

The launch took place on Nov. 11, 2022, 10:52 p.m. from Launch Complex 9A.

For more information about the launch, click the button.

Launch to space Long March 6A | Yunhai 3
Long March 6A | Yunhai 3

Agency: N/A

Status: Launch Successful

Launch date: Nov. 11, 2022, 10:52 p.m. UTC

Rocket: Long March 6A

Launch pad: Launch Complex 9A

Location: Taiyuan Satellite Launch Center, People's Republic of China

...

Latest news about this satellite

There are no fresh news available about this satellite. Check back as we update our databases every day.


Newsletter sign-up

Weekly statistics, charts and insights to help you stay on top of the space industry.